Regional Weather Roundup
Issued by NWS Glasgow, MT

Home | Current Version | Previous Version | Text Only | Print | Product List | Glossary On
Versions: 1 2 3 4 5 6 7 8 9 10 11 12 13 14 15 16 17 18 19 20 21 22 23 24 25 26 27 28 29 30 31 32 33 34 35 36 37 38 39 40 41 42 43 44 45 46 47 48 49 50
000
ASUS45 KGGW 261715
RWRGGW
HOURLY REGIONAL WEATHER ROUNDUP FOR NORTHEAST MONTANA
NATIONAL WEATHER SERVICE GLASGOW MONTANA
1100 AM MDT SUN MAR 26 2017

NOTE: "FAIR" INDICATES FEW OR NO CLOUDS BELOW 12,000 FEET WITH NO
SIGNIFICANT WEATHER AND/OR OBSTRUCTIONS TO VISISBILITY.

NORTHEAST MONTANA


CITY           SKY/WX    TMP DP  RH WIND       PRES   REMARKS
GLASGOW        SUNNY     50  27  40 NW8       29.93S
PLENTYWOOD       N/A     52  30  43 W2          N/A
WOLF POINT     PTSUNNY   56  25  30 NW13      29.91S
JORDAN           N/A     52  21  29 N14       29.94S
WINNETT          N/A     50  24  36 NE3G12      N/A
SIDNEY         NOT AVBL
GLENDIVE       SUNNY     58  35  42 W9        29.92F
MALTA            N/A     50  28  42 SW6         N/A
SCOBEY           N/A     51  23  33 W6        29.89S

FORT PECK REPORTS


CITY           SKY/WX    TMP DP  RH WIND       PRES   REMARKS
FORT PECK        N/A     49  28  44 W12         N/A
THE PINES        N/A     52  23  32 NE2         N/A

SOUTHEAST MONTANA


CITY           SKY/WX    TMP DP  RH WIND       PRES   REMARKS
BILLINGS       MOSUNNY   47  28  47 VRB3      29.97F
MILES CITY     SUNNY     53  37  54 W9        29.94F
BAKER          SUNNY     50  37  61 NW8       29.95R
LIVINGSTON     SUNNY     46  30  53 NW8       29.94F

CENTRAL MONTANA


CITY           SKY/WX    TMP DP  RH WIND       PRES   REMARKS
HAVRE          CLOUDY    44  26  49 SW13      29.93F
LEWISTOWN      SUNNY     47  19  33 NW8       29.92F
GREAT FALLS    SUNNY     48  18  30 SW16G23   29.92S
CUT BANK       SUNNY     43  19  38 SW10      29.90S
HELENA         SUNNY     46  28  49 VRB3      29.95F
BUTTE          SUNNY     40  20  44 VRB3      29.95F
BOZEMAN        SUNNY     44  30  57 CALM      29.97S

WESTERN MONTANA


CITY           SKY/WX    TMP DP  RH WIND       PRES   REMARKS
MISSOULA       PTSUNNY   39  31  72 CALM      29.98F
KALISPELL      NOT AVBL

NORTH DAKOTA


CITY           SKY/WX    TMP DP  RH WIND       PRES   REMARKS
WILLISTON      SUNNY     54  33  45 S5        29.90S
DICKINSON      CLOUDY    52  31  44 CALM      29.91S
MINOT          SUNNY     54  36  50 CALM      29.90S
BISMARCK       MOSUNNY   51  38  60 W5        29.93F

SOUTHERN SASKATCHEWAN


CITY           SKY/WX    TMP DP  RH WIND       PRES   REMARKS
REGINA         LGT RAIN  43  30  61 W3        29.88R
ESTEVAN        MOSUNNY   50  39  66 S5        29.89F
SWIFT CURRENT  SUNNY     46  21  36 W16G23    29.83S




USA.gov is the U.S. government's official web portal to all federal, state and local government web resources and services.